W5HRH Weather Reports


time (UTC)temp
F
wind
direction
speed
knots
gust
knots
rain 1hr
in
rain 24hr
in
rain mn
in
humidity
%
barometer
mb
20260510043554 76 169 3.5 9.6 0.00 0.06 0.06 87 1013.2
20260510043105 76 127 2.6 7.8 0.00 0.06 0.06 87 1013.5
20260510042553 76 155 1.7 7.8 0.00 0.06 0.06 87 1013.5
20260510042057 76 151 1.7 6.1 0.00 0.06 0.06 87 1013.5
20260510041553 76 132 0.9 6.1 0.00 0.06 0.06 87 1013.6
20260510041054 77 147 0.9 7.0 0.00 0.06 0.06 87 1013.6
20260510040553 77 137 1.7 7.0 0.00 0.06 0.06 88 1013.5
20260510040104 77 117 0.9 7.0 0.00 0.06 0.06 88 1013.3
20260510035551 77 164 1.7 7.8 0.00 0.06 0.06 88 1013.2
20260510035051 77 141 2.6 7.8 0.00 0.06 0.06 88 1013.0
20260510034559 77 141 1.7 6.1 0.00 0.06 0.06 88 1013.3
20260510034052 77 74 0.9 7.8 0.00 0.06 0.06 88 1013.5
20260510033553 77 86 0.9 7.8 0.00 0.06 0.06 88 1013.5
20260510033051 77 134 1.7 7.0 0.00 0.06 0.06 87 1013.7
20260510032550 78 113 0.9 11.3 0.00 0.06 0.06 87 1013.6
20260510032051 78 44 1.7 9.6 0.00 0.06 0.06 87 1013.4
20260510031601 78 126 0.9 13.0 0.00 0.06 0.06 86 1013.6
20260510031051 79 141 2.6 13.0 0.00 0.06 0.06 85 1013.6
20260510030553 79 161 2.6 12.2 0.00 0.06 0.06 84 1013.6
20260510030049 79 229 1.7 10.4 0.00 0.06 0.06 80 1013.4
20260510025548 79 81 1.7 7.0 0.00 0.06 0.06 75 1013.3
20260510025048 78 142 0.9 7.0 0.00 0.06 0.06 75 1013.2
20260510024546 78 144 1.7 7.0 0.00 0.06 0.06 75 1012.9
20260510024045 78 92 1.7 6.1 0.00 0.06 0.06 76 1012.8
20260510023545 78 170 2.6 6.1 0.00 0.06 0.06 76 1012.6
20260510023047 77 130 1.7 6.1 0.00 0.06 0.06 77 1012.3
20260510022545 77 163 0.0 2.6 0.00 0.06 0.06 79 1012.4
20260510022045 77 147 0.0 2.6 0.00 0.06 0.06 81 1012.1
20260510021545 77 136 0.0 1.7 0.00 0.06 0.06 82 1012.0
20260510021044 77 140 0.0 1.7 0.00 0.06 0.06 83 1011.9
20260510020544 77 150 0.0 1.7 0.00 0.06 0.06 84 1011.8
20260510020044 77 105 0.0 0.9 0.00 0.06 0.06 84 1011.7
20260510015543 77 103 0.0 0.9 0.00 0.06 0.06 84 1011.3
20260510015042 77 103 0.0 0.9 0.00 0.06 0.06 83 1011.2
20260510014644 77 103 0.0 0.9 0.00 0.06 0.06 82 1011.0
20260510014042 77 101 0.0 0.9 0.00 0.06 0.06 82 1010.9
20260510013545 77 101 0.0 0.9 0.00 0.06 0.06 82 1010.9
20260510013050 77 101 0.0 0.0 0.00 0.06 0.06 81 1010.9
20260510012545 77 101 0.0 1.7 0.00 0.06 0.06 81 1010.7
20260510012042 77 101 0.0 2.6 0.00 0.06 0.06 81 1010.5
20260510011543 77 99 0.0 2.6 0.00 0.06 0.06 81 1010.7
20260510011043 77 76 0.0 2.6 0.00 0.06 0.06 81 1010.6
20260510010541 77 108 0.0 1.7 0.00 0.06 0.06 80 1010.6
20260510010042 77 129 0.0 0.9 0.00 0.06 0.06 80 1010.2
20260510005541 78 129 0.0 0.0 0.00 0.06 0.06 79 1010.0
20260510005041 78 129 0.0 0.9 0.00 0.06 0.06 79 1010.1
20260510004540 78 129 0.0 1.7 0.00 0.06 0.06 79 1010.0
20260510004040 78 129 0.0 2.6 0.00 0.06 0.06 80 1010.0
20260510003540 78 128 1.7 2.6 0.00 0.06 0.06 78 1010.1
20260510003040 79 121 0.9 1.7 0.00 0.06 0.06 77 1010.1
20260510002542 79 193 0.0 3.5 0.00 0.06 0.06 76 1010.0
20260510002039 79 208 0.9 5.2 0.01 0.06 0.06 76 1010.2
20260510001540 80 237 0.9 5.2 0.01 0.06 0.06 79 1010.2
20260510001039 80 330 0.9 2.6 0.01 0.06 0.06 83 1010.1
20260510000539 80 151 0.9 3.5 0.02 0.06 0.06 83 1010.0
20260510000039 81 141 0.0 2.6 0.02 0.06 0.06 84 1010.1
20260509235538 81 137 0.9 2.6 0.06 0.06 0.06 82 1010.1
20260509235039 81 134 0.0 2.6 0.06 0.06 0.06 83 1009.8
20260509234540 81 157 0.0 2.6 0.06 0.06 0.06 82 1009.5
20260509234041 81 116 0.0 1.7 0.06 0.06 0.06 80 1009.8
20260509233538 82 115 0.0 2.6 0.06 0.06 0.06 79 1009.7
20260509233037 82 80 0.0 3.5 0.06 0.06 0.06 78 1009.6
20260509232537 83 104 0.0 2.6 0.06 0.06 0.06 78 1009.6
20260509232037 84 115 0.0 1.7 0.05 0.05 0.05 79 1009.6
20260509231537 85 115 0.0 1.7 0.05 0.05 0.05 76 1009.7
20260509231037 86 110 0.0 1.7 0.05 0.05 0.05 74 1009.7
20260509230536 88 109 0.0 1.7 0.04 0.04 0.04 71 1009.8
20260509230040 89 28 0.0 0.0 0.04 0.04 0.04 66 1009.8
20260509225536 89 28 0.0 0.9 0.00 0.00 0.00 64 1009.5
20260509225036 89 28 0.0 1.7 0.00 0.00 0.00 63 1009.5
20260509224538 89 27 0.0 1.7 0.00 0.00 0.00 63 1009.5
20260509224035 89 23 0.0 1.7 0.00 0.00 0.00 63 1009.5
20260509223535 89 23 0.0 1.7 0.00 0.00 0.00 62 1009.5
20260509223035 89 23 0.0 2.6 0.00 0.00 0.00 62 1009.4
20260509222535 89 98 0.9 2.6 0.00 0.00 0.00 63 1009.4
20260509222036 89 99 0.9 2.6 0.00 0.00 0.00 63 1009.4
20260509221534 89 136 0.9 5.2 0.00 0.00 0.00 63 1009.3
20260509221034 90 153 1.7 5.2 0.00 0.00 0.00 62 1009.3
20260509220534 90 93 0.0 2.6 0.00 0.00 0.00 63 1009.4
20260509220038 90 92 0.0 4.3 0.00 0.00 0.00 63 1009.2
20260509215533 90 158 0.0 4.3 0.00 0.00 0.00 62 1009.3
20260509215033 90 28 1.7 3.5 0.00 0.00 0.00 62 1009.2
20260509214534 90 105 0.9 3.5 0.00 0.00 0.00 63 1009.2
20260509214033 90 166 0.9 5.2 0.00 0.00 0.00 62 1009.2
20260509213530 89 130 0.9 5.2 0.00 0.00 0.00 63 1009.2
20260509213030 89 89 0.9 4.3 0.00 0.00 0.00 64 1009.2
20260509212528 89 148 1.7 5.2 0.00 0.00 0.00 63 1009.3
20260509212032 89 100 1.7 5.2 0.00 0.00 0.00 63 1009.5
20260509211528 89 71 0.9 3.5 0.00 0.00 0.00 64 1009.4
20260509211030 89 121 0.9 5.2 0.00 0.00 0.00 65 1009.5
20260509210526 89 171 1.7 5.2 0.00 0.00 0.00 65 1009.6
20260509210029 88 342 0.0 2.6 0.00 0.00 0.00 64 1009.7
20260509205525 89 346 0.0 4.3 0.00 0.00 0.00 65 1009.8
20260509205023 89 319 0.9 5.2 0.00 0.00 0.00 64 1009.8
20260509204523 89 340 1.7 5.2 0.00 0.00 0.00 64 1009.9
20260509204023 89 329 0.0 2.6 0.00 0.00 0.00 64 1009.8
20260509203521 89 324 0.0 5.2 0.00 0.00 0.00 66 1009.9
20260509203021 88 284 1.7 5.2 0.00 0.00 0.00 66 1009.9
20260509202520 88 321 1.7 5.2 0.00 0.00 0.00 65 1010.0
20260509202021 88 76 1.7 5.2 0.00 0.00 0.00 64 1010.0
20260509201518 88 177 0.9 2.6 0.00 0.00 0.00 67 1010.0
20260509201017 88 22 0.0 5.2 0.00 0.00 0.00 67 1010.1
20260509200517 87 344 2.6 7.0 0.00 0.00 0.00 66 1010.0
20260509200017 88 42 1.7 7.0 0.00 0.03 0.00 65 1010.1
20260509195520 88 13 1.7 7.0 0.00 0.03 0.00 66 1010.1
20260509195014 88 338 0.9 4.3 0.00 0.03 0.00 68 1010.2
20260509194521 88 24 0.9 3.5 0.00 0.03 0.00 68 1010.3
20260509194014 87 46 0.9 3.5 0.00 0.03 0.00 66 1010.2
20260509193519 87 192 0.9 2.6 0.00 0.03 0.00 67 1010.3
20260509193013 87 344 0.0 2.6 0.00 0.03 0.00 70 1010.3
20260509192510 87 287 0.0 2.6 0.00 0.03 0.00 69 1010.5
20260509192013 86 321 0.0 4.3 0.00 0.03 0.00 68 1010.5
20260509191510 86 283 0.9 4.3 0.00 0.03 0.00 69 1010.5
20260509191008 86 333 0.0 4.3 0.00 0.03 0.00 69 1010.5
20260509190509 86 333 1.7 4.3 0.00 0.03 0.00 68 1010.7
20260509190011 86 350 0.0 3.5 0.00 0.03 0.00 71 1010.6
20260509185506 86 342 0.9 3.5 0.00 0.03 0.00 70 1010.8
20260509185007 86 187 0.0 4.3 0.00 0.03 0.00 71 1010.9
20260509184504 86 188 0.0 4.3 0.00 0.03 0.00 71 1010.9
20260509184003 85 162 0.0 0.0 0.00 0.03 0.00 71 1010.8
20260509183502 85 286 0.0 2.6 0.00 0.03 0.00 72 1011.0
20260509183002 85 284 0.0 2.6 0.00 0.03 0.00 72 1011.1
20260509182502 85 178 0.9 4.3 0.00 0.03 0.00 71 1011.1
20260509182001 85 194 0.0 5.2 0.00 0.03 0.00 72 1011.1
20260509181501 85 167 2.6 7.8 0.00 0.03 0.00 71 1011.3
20260509181101 85 137 2.6 7.8 0.00 0.03 0.00 71 1011.3
20260509180600 85 178 1.7 4.3 0.00 0.03 0.00 72 1011.5
20260509180109 85 207 0.0 6.1 0.00 0.03 0.00 72 1011.7
20260509175602 85 174 1.7 6.1 0.00 0.03 0.00 71 1011.8
20260509175056 84 173 0.9 3.5 0.00 0.03 0.00 73 1011.8
20260509174555 84 232 1.7 6.1 0.00 0.03 0.00 75 1012.0
20260509174055 84 183 3.5 7.0 0.00 0.03 0.00 76 1012.0
20260509173554 84 148 1.7 7.0 0.00 0.03 0.00 77 1012.0
20260509173057 84 125 1.7 4.3 0.00 0.03 0.00 78 1012.1
20260509172552 83 187 0.9 6.1 0.00 0.03 0.00 80 1012.1
20260509172053 82 159 0.9 7.8 0.00 0.03 0.00 81 1012.1
20260509171549 82 160 3.5 7.8 0.00 0.03 0.00 82 1012.1
20260509171053 82 174 0.9 6.1 0.00 0.03 0.00 81 1012.2
20260509170551 82 224 0.0 5.2 0.00 0.03 0.00 82 1012.4
20260509170058 82 181 0.0 3.5 0.00 0.03 0.00 82 1012.3
20260509165546 81 153 0.9 2.6 0.00 0.03 0.00 83 1012.4
20260509165044 81 153 0.0 0.9 0.00 0.03 0.00 84 1012.3
20260509164543 80 153 0.0 1.7 0.00 0.03 0.00 84 1012.3
20260509164045 80 153 0.0 1.7 0.00 0.03 0.00 84 1012.4
20260509163542 80 355 0.0 1.7 0.00 0.03 0.00 84 1012.3
20260509163101 80 355 0.0 1.7 0.00 0.03 0.00 85 1012.3
20260509162544 80 355 0.0 1.7 0.00 0.03 0.00 85 1012.3
20260509162041 80 355 0.0 0.9 0.00 0.03 0.00 86 1012.3
20260509161541 80 348 0.0 0.0 0.00 0.03 0.00 86 1012.3
20260509161043 80 350 0.0 1.7 0.00 0.03 0.00 86 1012.4
20260509160539 79 355 0.0 1.7 0.00 0.03 0.00 87 1012.5
20260509160037 79 74 0.0 0.0 0.00 0.03 0.00 87 1012.5
20260509155541 79 74 0.0 1.7 0.00 0.03 0.00 87 1012.5
20260509155035 79 72 0.0 1.7 0.00 0.03 0.00 88 1012.3
20260509154540 78 72 0.0 1.7 0.00 0.03 0.00 89 1012.3
20260509154033 78 126 0.0 1.7 0.00 0.03 0.00 90 1012.2
20260509153535 78 126 0.0 1.7 0.00 0.03 0.00 90 1012.3
20260509153034 78 126 0.0 1.7 0.00 0.03 0.00 90 1012.0
20260509152532 77 138 0.0 1.7 0.00 0.03 0.00 91 1012.3
20260509152032 77 138 0.0 1.7 0.00 0.03 0.00 91 1012.3
20260509151530 77 138 0.0 0.9 0.00 0.03 0.00 91 1012.3
20260509151029 77 138 0.0 0.9 0.00 0.03 0.00 92 1012.3
20260509150529 77 138 0.0 1.7 0.00 0.03 0.00 92 1012.3
20260509150028 77 138 0.0 1.7 0.00 0.03 0.00 93 1012.2
20260509145028 76 138 0.9 1.7 0.00 0.03 0.00 93 1011.9
20260509144526 76 42 0.0 1.7 0.00 0.03 0.00 94 1012.0
20260509144025 76 345 0.0 0.9 0.00 0.03 0.00 94 1012.0
20260509143528 76 345 0.0 0.0 0.00 0.03 0.00 95 1012.0
20260509143025 76 345 0.0 0.9 0.00 0.03 0.00 95 1011.8
20260509142524 76 345 0.0 0.9 0.00 0.03 0.00 95 1011.7
20260509142024 76 345 0.0 0.9 0.00 0.03 0.00 95 1011.7
20260509141536 76 345 0.0 0.9 0.00 0.03 0.00 95 1011.6
20260509141024 76 345 0.0 2.6 0.00 0.03 0.00 95 1011.5
20260509140523 76 345 0.9 2.6 0.00 0.03 0.00 95 1011.4
20260509140023 76 169 0.0 1.7 0.00 0.03 0.00 96 1011.5
20260509135523 76 165 0.0 1.7 0.00 0.03 0.00 96 1011.5
20260509135022 76 164 0.0 1.7 0.00 0.03 0.00 96 1011.6
20260509134522 76 171 0.0 1.7 0.00 0.03 0.00 96 1011.8
20260509134022 75 171 0.0 1.7 0.00 0.03 0.00 96 1011.6
20260509133524 75 171 0.0 0.0 0.00 0.03 0.00 96 1011.8
20260509133020 75 128 0.0 0.0 0.00 0.03 0.00 96 1012.1
20260509132520 75 123 0.0 0.0 0.00 0.03 0.00 96 1012.2
20260509132020 75 118 0.0 0.0 0.00 0.03 0.00 96 1012.6
20260509131522 75 118 0.0 0.0 0.00 0.03 0.00 96 1012.6
20260509131023 75 118 0.0 0.0 0.00 0.03 0.00 96 1012.6
20260509130517 75 118 0.0 0.0 0.00 0.03 0.00 96 1012.4
20260509130016 75 118 0.0 0.0 0.00 0.03 0.00 96 1012.3
20260509125518 75 118 0.0 0.0 0.00 0.03 0.00 96 1012.2
20260509125015 75 118 0.0 0.0 0.00 0.03 0.00 97 1012.2
20260509124516 75 118 0.0 0.0 0.00 0.03 0.00 97 1012.3
20260509124015 75 117 0.0 0.0 0.00 0.03 0.00 97 1012.1
20260509123515 74 116 0.0 0.0 0.00 0.03 0.00 96 1012.1
20260509123014 74 116 0.0 0.0 0.00 0.03 0.00 96 1012.0
20260509122514 74 115 0.0 0.0 0.00 0.03 0.00 96 1012.1
20260509122014 74 115 0.0 0.0 0.00 0.03 0.00 96 1012.1
20260509121516 74 115 0.0 0.0 0.00 0.03 0.00 96 1012.1
20260509121014 74 115 0.0 0.0 0.00 0.03 0.00 96 1011.9
20260509120514 74 115 0.0 0.0 0.00 0.03 0.00 96 1011.9
20260509120014 74 115 0.0 0.0 0.00 0.03 0.00 96 1011.8
20260509115513 74 115 0.0 0.0 0.00 0.03 0.00 96 1011.8
20260509115020 74 115 0.0 0.0 0.00 0.03 0.00 96 1011.8
20260509114513 74 115 0.0 0.0 0.00 0.03 0.00 96 1011.8
20260509114013 74 115 0.0 0.0 0.00 0.03 0.00 96 1011.9
20260509113513 74 115 0.0 0.0 0.00 0.03 0.00 96 1012.1
20260509113013 74 115 0.0 0.0 0.00 0.03 0.00 96 1012.0
20260509112512 74 115 0.0 1.7 0.00 0.03 0.00 96 1011.9
20260509112012 74 115 0.0 1.7 0.00 0.03 0.00 96 1012.0
20260509111516 74 115 0.0 1.7 0.00 0.03 0.00 96 1012.1
20260509111017 74 115 0.0 1.7 0.00 0.03 0.00 96 1012.0
20260509110513 74 161 0.0 0.0 0.00 0.03 0.00 96 1012.1
20260509110014 74 161 0.0 0.0 0.00 0.03 0.00 96 1011.9
20260509105512 74 161 0.0 0.0 0.00 0.03 0.00 96 1011.6
20260509105011 74 161 0.0 0.0 0.00 0.03 0.00 96 1011.5
20260509104524 74 161 0.0 0.0 0.00 0.03 0.00 96 1011.4
20260509104011 74 161 0.0 0.0 0.00 0.03 0.00 96 1011.2
20260509103511 74 161 0.0 1.7 0.00 0.03 0.00 96 1011.2
20260509103011 74 161 0.0 1.7 0.00 0.03 0.00 96 1011.3
20260509102513 74 161 0.0 1.7 0.00 0.03 0.00 96 1011.4
20260509102010 74 161 0.0 0.0 0.00 0.03 0.00 95 1011.4
20260509101511 74 161 0.0 0.0 0.00 0.03 0.00 95 1011.3
20260509101010 74 161 0.0 0.0 0.00 0.03 0.00 95 1011.2
20260509100510 74 161 0.0 0.0 0.00 0.03 0.00 95 1011.2
20260509100017 74 161 0.0 0.0 0.00 0.03 0.00 95 1011.1
20260509095510 74 161 0.0 0.0 0.00 0.03 0.00 95 1011.0
20260509095009 74 161 0.0 0.0 0.00 0.03 0.00 95 1011.1
20260509094509 74 161 0.0 0.0 0.00 0.03 0.00 95 1011.0
20260509094009 74 161 0.0 0.0 0.00 0.03 0.00 95 1011.1
20260509093510 74 161 0.0 0.0 0.00 0.03 0.00 95 1011.0
20260509093009 74 161 0.0 0.0 0.00 0.03 0.00 95 1011.2
20260509092508 74 161 0.0 0.0 0.00 0.03 0.00 95 1011.2
20260509092008 75 161 0.0 0.0 0.00 0.03 0.00 95 1011.2
20260509091508 75 161 0.0 0.0 0.00 0.03 0.00 95 1011.4
20260509091008 74 161 0.0 0.0 0.00 0.03 0.00 95 1011.5
20260509090508 74 161 0.0 0.0 0.00 0.03 0.00 95 1011.4
20260509090008 75 161 0.0 0.0 0.00 0.03 0.00 95 1011.5
20260509085507 75 161 0.0 0.0 0.00 0.03 0.00 95 1011.4
20260509085007 75 161 0.0 0.0 0.00 0.03 0.00 95 1011.4
20260509084508 75 161 0.0 0.9 0.00 0.03 0.00 95 1011.3
20260509084007 75 161 0.0 0.9 0.00 0.03 0.00 95 1011.2
20260509083509 75 161 0.0 2.6 0.00 0.03 0.00 95 1011.3
20260509083008 75 161 0.0 3.5 0.00 0.03 0.00 95 1011.2
20260509082508 75 168 0.9 3.5 0.00 0.03 0.00 95 1011.1
20260509082007 75 180 0.9 4.3 0.00 0.03 0.00 95 1011.1
20260509081507 75 164 0.9 2.6 0.00 0.03 0.00 95 1011.2
20260509081007 75 172 0.0 1.7 0.00 0.03 0.00 95 1011.3
20260509080506 75 173 0.0 2.6 0.00 0.03 0.00 95 1011.3
20260509080006 75 176 0.0 3.5 0.00 0.03 0.00 95 1011.2
20260509075506 75 167 0.0 2.6 0.00 0.03 0.00 95 1011.2
20260509075005 75 212 0.0 4.3 0.00 0.03 0.00 95 1011.2
20260509074506 75 156 0.9 4.3 0.00 0.03 0.00 95 1011.1
20260509074007 75 178 0.9 3.5 0.00 0.03 0.00 95 1011.1
20260509073504 75 147 1.7 6.1 0.00 0.03 0.00 95 1011.2
20260509073006 75 159 0.9 6.1 0.00 0.03 0.00 95 1011.3
20260509072503 74 150 1.7 4.3 0.00 0.03 0.00 95 1011.4
20260509072000 74 159 0.9 4.3 0.00 0.03 0.00 95 1011.4
20260509071601 74 113 0.0 1.7 0.00 0.03 0.00 95 1011.6
20260509071100 74 111 0.0 0.9 0.00 0.03 0.00 95 1011.7
20260509070600 74 111 0.0 0.9 0.00 0.03 0.00 95 1011.7
20260509070104 74 111 0.0 0.9 0.00 0.03 0.00 95 1011.5
20260509065559 74 111 0.0 0.0 0.00 0.03 0.00 95 1011.7
20260509065059 74 111 0.0 0.9 0.00 0.03 0.00 95 1011.6
20260509064559 74 111 0.0 1.7 0.00 0.03 0.00 95 1011.6
20260509064059 74 111 0.0 1.7 0.00 0.03 0.00 95 1011.6
20260509063558 74 111 0.0 0.0 0.00 0.03 0.00 95 1011.7
20260509063102 74 111 0.0 0.0 0.00 0.03 0.00 95 1011.7
20260509062556 74 111 0.0 0.0 0.00 0.03 0.00 95 1011.8
20260509062054 74 111 0.0 0.9 0.00 0.03 0.00 94 1011.9
20260509061606 74 111 0.0 0.0 0.00 0.03 0.00 95 1011.8
20260509061053 74 111 0.0 0.0 0.00 0.03 0.00 95 1011.8
20260509060553 74 111 0.0 0.0 0.00 0.03 0.00 95 1011.7
20260509060051 74 111 0.0 0.0 0.00 0.03 0.00 95 1011.8
20260509055553 74 111 0.0 0.0 0.00 0.03 0.00 95 1011.9
20260509055047 74 111 0.0 0.0 0.00 0.03 0.00 94 1012.0
20260509054555 74 111 0.0 0.0 0.00 0.03 0.00 94 1012.0
20260509054044 74 111 0.0 0.9 0.00 0.03 0.00 94 1011.9
20260509053544 74 111 0.0 0.9 0.00 0.03 0.00 94 1011.9
20260509053055 74 111 0.0 0.9 0.00 0.03 0.00 94 1012.0
20260509052542 74 111 0.0 0.9 0.00 0.03 0.00 94 1012.0
20260509052038 74 111 0.0 2.6 0.00 0.03 0.00 94 1012.0
20260509051537 74 111 0.0 2.6 0.00 0.03 0.00 94 1012.0
20260509051036 74 113 0.0 2.6 0.00 0.03 0.00 94 1012.2
20260509050535 74 105 0.0 1.7 0.00 0.03 0.00 94 1012.0
20260509050033 74 105 0.0 0.9 0.00 0.03 0.00 94 1012.2
20260509045532 74 105 0.0 0.0 0.00 0.03 0.03 94 1012.1
20260509045029 74 105 0.0 1.7 0.00 0.03 0.03 94 1012.2
20260509044533 74 105 0.0 1.7 0.00 0.03 0.03 94 1012.2
20260509044027 74 105 0.0 2.6 0.00 0.03 0.03 94 1012.3